Starlink 31771

operational
NORAD ID: 59620 Int'l Des: 2024-080 Owner: SPXS Country: US Constellation: starlink
LEOCIRCULAR

About Starlink 31771

Description loading...

Live Position

Loading 3D Globe...

Upcoming Passes

Altitude History

Altitude vs Time

uPlot chart will show altitude changes over time

Two-Line Element Set

1 59620U 24080V 25351.64517843 .00992118 48916-3 17308-2 0 9992
2 59620 42.9753 114.0289 0023133 347.8637 12.1681 16.00840628 92295
Epoch: Dec 17, 2025 • Age: 5 hours

Current Status

Altitude 265.6 km
Velocity 7.76 km/s
Sub-Earth Point 33.38°N, 127.81°E
Launch Date Apr 28, 2024
Age 1.6 years
Type internet

Technical Details

Classification Payload
Mass 730.00 kg
Dry Mass 700.00 kg
Total Mass 730.00 kg
Length 0.30 m
Diameter 4.10 m
Span 29.00 m
Shape Box + pan
Manufacturer SPXS
Bus Type Starlink V2M
Phase Status In Orbit
Owner/State SPXS/US

Large Constellations

Loading constellations...